Miscellaneous Local Product
Issued by NWS Hastings, NE

Home | Current Version | Previous Version | Text Only | Print | Product List | Glossary Off
Versions: 1 2 3 4 5 6 7 8 9 10 11 12 13 14 15 16 17 18 19 20 21 22 23 24 25 26 27 28 29 30 31 32 33 34 35 36 37 38 39 40 41 42 43 44 45 46 47 48 49 50

000
AXUS43 KGID 272102
MISGRI

GID CWA HOURLY WEATHER ROUNDUP
NATIONAL WEATHER SERVICE HASTINGS NE
300 PM CST TUE JAN 27 2015

NOTE: "FAIR" INDICATES FEW OR NO CLOUDS BELOW 12,000 FEET WITH NO
SIGNIFICANT WEATHER AND/OR OBSTRUCTIONS TO VISIBILITY.

...SOUTH CENTRAL NEBRASKA...

CITY           SKY/WX    TMP DP  RH WIND       PRES   REMARKS
GRAND ISLAND   SUNNY     62  33  33 S10       29.97F
HASTINGS       SUNNY     65  30  27 SE7       29.95F
KEARNEY        SUNNY     64  34  32 S6        29.95F
ORD            SUNNY     59  34  39 SE8       29.93F
YORK           SUNNY     57  34  41 S14G20    29.98F
AURORA         SUNNY     62  33  33 S12       29.96F
LEXINGTON      SUNNY     70  31  24 CALM      29.94F
HOLDREGE       SUNNY     65  31  27 W9        29.96S
HEBRON         SUNNY     63  30  29 SE13      29.99F

...NEBRASKA PANHANDLE...

CITY           SKY/WX    TMP DP  RH WIND       PRES   REMARKS
CHADRON        SUNNY     68  30  24 NW5       29.94F
ALLIANCE       SUNNY     71  29  21 W7        29.97F
SCOTTSBLUFF      N/A    N/A N/A N/A MISG      29.99F
SIDNEY         SUNNY     73  24  16 NW8       30.02F

...WESTERN AND NORTH CENTRAL NEBRASKA...

CITY           SKY/WX    TMP DP  RH WIND       PRES   REMARKS
VALENTINE      SUNNY     70  32  24 W6        29.90F
AINSWORTH      SUNNY     68  31  25 W6        29.91F
ONEILL         SUNNY     60  36  40 S13       29.92F
BROKEN BOW     SUNNY     70  34  26 VRB5      29.93F
IMPERIAL       SUNNY     75  25  15 W7        29.98F
NORTH PLATTE   SUNNY     70  30  22 CALM      29.94F
MCCOOK         SUNNY     72  30  21 W3        29.96F

...EASTERN NEBRASKA...

CITY           SKY/WX    TMP DP  RH WIND       PRES   REMARKS
NORFOLK        SUNNY     55  34  45 S16       29.97F
SO SIOUX CITY  SUNNY     49  35  58 SE14      30.04F
TEKAMAH        SUNNY     52  35  52 SE12      30.04F
COLUMBUS       SUNNY     57  36  44 SE10      30.00F
ALBION         SUNNY     57  34  41 S13G21    29.96F
OMAHA EPPLEY   MOSUNNY   52  34  50 S10       30.05F
OFFUTT AFB     SUNNY     54  33  45 SE12      30.04F
MILLARD        SUNNY     53  33  46 SE12      30.04F
LINCOLN        SUNNY     58  33  39 SE12      30.02F
NEBRASKA CITY  SUNNY     53  27  36 SE10      30.04F
BEATRICE       SUNNY     59  33  37 SE12      30.01F
FALLS CITY     SUNNY     56  31  38 SE10      30.05F

...NORTHERN KANSAS...

CITY           SKY/WX    TMP DP  RH WIND       PRES   REMARKS
GOODLAND       SUNNY     79  20  11 W16       30.01F
HILL CITY      SUNNY     82  30  15 N6        29.95F
NORTON         CLEAR     73  21  14 W8        29.95F
PHILLIPSBURG   SUNNY     73  32  21 CALM      29.96F
SMITH CENTER   SUNNY     64  32  29 S5        29.97S
BELOIT         SUNNY     72  32  23 S9        29.95F
HAYS           SUNNY     84  28  13 SW16G23   29.95F
RUSSELL        SUNNY     77  32  19 SW10      29.94F
CONCORDIA      SUNNY     68  35  29 S15       29.97F
SALINA         SUNNY     74  36  25 S12       29.98F
TOPEKA         SUNNY     60  32  34 SE12      30.06F



USA.gov is the U.S. government's official web portal to all federal, state and local government web resources and services.